DW4360 Weather Reports


time (UTC)temp
C
wind
direction
speed
KPH
gust
KPH
rain 1hr
cm
rain 24hr
cm
rain mn
cm
humidity
%
barometer
mb
20260904031311 14 169 0.0 0.0 0.00 0.00 0.08 83 1008.8
20260904030310 15 169 0.0 0.0 0.00 0.00 0.08 82 1008.6
20260904025309 15 169 0.0 0.0 0.00 0.00 0.08 81 1008.6
20260904024308 15 169 0.0 0.0 0.00 0.00 0.08 81 1008.5
20260904023307 15 169 0.0 0.0 0.00 0.00 0.08 81 1008.5
20260904020304 15 169 0.0 0.0 0.00 0.00 0.08 80 1008.5
20260904014302 16 170 8.0 0.0 0.00 0.00 0.08 78 1008.6
20260904012300 15 190 0.0 0.0 0.00 0.00 0.08 79 1008.6
20260904011259 15 198 0.0 0.0 0.00 0.00 0.08 80 1008.7
20260904010258 15 184 0.0 0.0 0.00 0.00 0.08 78 1008.6
20260904005257 15 184 0.0 0.0 0.00 0.00 0.08 74 1008.5
20260904004256 16 182 0.0 0.0 0.00 0.00 0.08 74 1008.5
20260904003255 16 232 0.0 0.0 0.00 0.00 0.08 73 1008.5
20260904002254 16 262 0.0 0.0 0.00 0.00 0.08 74 1008.6
20260904001253 16 203 0.0 0.0 0.00 0.00 0.08 78 1008.6
20260904000252 15 202 1.6 0.0 0.00 0.00 0.08 80 1008.7
20260903235251 15 202 0.0 0.0 0.00 0.00 0.08 81 1008.7
20260903234250 15 202 0.0 0.0 0.00 0.00 0.08 82 1008.8
20260903233249 15 202 0.0 0.0 0.00 0.00 0.08 81 1008.8
20260903232248 15 226 0.0 0.0 0.00 0.00 0.08 80 1008.8
20260903231247 15 226 0.0 0.0 0.00 0.00 0.08 78 1009.1
20260903230245 15 216 3.2 0.0 0.00 0.00 0.08 77 1009.2
20260903225245 16 206 4.8 0.0 0.00 0.00 0.08 75 1009.2
20260903224244 16 194 0.0 0.0 0.00 0.00 0.08 73 1009.2
20260903223243 16 244 0.0 0.0 0.00 0.00 0.08 71 1009.0
20260903222242 17 232 0.0 0.0 0.00 0.00 0.08 70 1009.0
20260903221240 17 225 9.7 0.0 0.00 0.00 0.08 71 1008.9
20260903220240 17 250 4.8 0.0 0.00 0.00 0.08 69 1008.9
20260903215239 17 181 6.4 0.0 0.00 0.00 0.08 70 1008.9
20260903213237 17 226 0.0 0.0 0.00 0.00 0.08 70 1008.9
20260903212236 17 286 0.0 0.0 0.00 0.00 0.08 70 1009.1
20260903211234 17 234 4.8 0.0 0.00 0.00 0.08 69 1009.1
20260903210234 17 277 3.2 0.0 0.00 0.00 0.08 73 1009.0
20260903205233 17 195 8.0 0.0 0.00 0.00 0.08 74 1008.9
20260903204231 17 223 1.6 0.0 0.00 0.00 0.08 72 1008.9
20260903202230 17 192 6.4 0.0 0.00 0.00 0.08 75 1008.9
20260903200228 17 252 6.4 0.0 0.00 0.00 0.08 72 1008.9
20260903195227 17 242 0.0 0.0 0.00 0.00 0.08 75 1008.9
20260903194225 17 180 6.4 0.0 0.00 0.00 0.08 75 1008.9
20260903192223 16 279 3.2 0.0 0.00 0.00 0.08 77 1009.0
20260903191222 16 194 3.2 0.0 0.00 0.00 0.08 79 1009.1
20260903190221 16 229 0.0 0.0 0.00 0.00 0.08 84 1009.1
20260903185220 15 217 8.0 0.0 0.00 0.00 0.08 84 1009.1
20260903184219 15 265 0.0 0.0 0.00 0.00 0.08 84 1009.2
20260903182218 16 219 4.8 0.0 0.00 0.00 0.08 84 1009.1
20260903180215 16 209 0.0 0.0 0.00 0.00 0.08 86 1009.0
20260903175214 16 229 0.0 0.0 0.00 0.00 0.08 84 1009.0
20260903174213 17 180 0.0 0.0 0.00 0.00 0.08 82 1009.0
20260903172211 16 180 0.0 0.0 0.00 0.00 0.08 92 1009.0
20260903170209 15 192 0.0 0.0 0.00 0.00 0.08 94 1009.1
20260903165208 14 209 0.0 0.0 0.00 0.00 0.08 94 1009.3
20260903164207 13 209 0.0 0.0 0.00 0.00 0.08 94 1009.4
20260903163206 13 209 0.0 0.0 0.00 0.00 0.08 94 1009.4
20260903162205 13 209 0.0 0.0 0.00 0.00 0.08 93 1009.3
20260903161204 13 209 0.0 0.0 0.00 0.00 0.08 93 1009.3
20260903160203 13 209 0.0 0.0 0.00 0.00 0.05 93 1009.4
20260903155202 13 221 0.0 0.0 0.00 0.00 0.03 93 1009.3
20260903154201 13 196 0.0 0.0 0.00 0.00 0.03 93 1009.3
20260903153200 13 194 6.4 0.0 0.00 0.00 1.04 93 1009.2
20260903152159 12 192 0.0 0.0 0.00 0.00 1.04 93 1009.2
20260903145156 12 223 4.8 0.0 0.00 0.00 0.99 93 1009.0
20260903144155 12 198 1.6 0.0 0.00 0.00 0.97 93 1009.0
20260903143154 12 205 0.0 0.0 0.00 0.00 0.94 93 1008.9
20260903142153 12 194 0.0 0.0 0.00 0.00 0.91 93 1008.8
20260903135150 12 184 0.0 0.0 0.00 0.00 0.86 92 1008.6
20260903133148 12 200 0.0 0.0 0.00 0.00 0.84 92 1008.6
20260903132147 12 200 0.0 0.0 0.00 0.00 0.79 91 1008.5
20260903131146 12 199 0.0 0.0 0.00 0.00 0.76 91 1008.5
20260903130145 12 199 0.0 0.0 0.00 0.00 0.76 90 1008.5
20260903124143 12 199 0.0 0.0 0.00 0.00 0.71 89 1008.6
20260903123142 12 206 0.0 0.0 0.00 0.00 0.71 90 1008.4
20260903122141 12 197 0.0 0.0 0.00 0.00 0.71 90 1008.5
20260903121140 12 188 0.0 0.0 0.00 0.00 0.71 90 1008.5
20260903120138 12 200 0.0 0.0 0.00 0.00 0.71 90 1008.6
20260903115138 12 200 4.8 0.0 0.00 0.00 0.71 90 1008.6
20260903114137 12 221 0.0 0.0 0.00 0.00 0.71 90 1008.6
20260903113136 12 197 0.0 0.0 0.00 0.00 0.71 91 1008.5
20260903112136 12 208 0.0 0.0 0.00 0.00 0.71 91 1008.4
20260903111134 12 208 4.8 0.0 0.00 0.00 0.71 91 1008.5
20260903110133 12 217 4.8 0.0 0.00 0.00 0.71 91 1008.5
20260903105131 12 200 0.0 0.0 0.00 0.00 0.71 91 1008.5
20260903104131 13 209 0.0 0.0 0.00 0.00 0.71 92 1008.6
20260903103130 13 207 0.0 0.0 0.00 0.00 0.71 92 1008.7
20260903102129 12 188 0.0 0.0 0.00 0.00 0.71 92 1008.7
20260903101127 12 188 0.0 0.0 0.00 0.00 0.71 92 1008.5
20260903100127 12 186 0.0 0.0 0.00 0.00 0.71 92 1008.4
20260903095126 13 186 0.0 0.0 0.00 0.00 0.71 92 1008.3
20260903094124 13 186 0.0 0.0 0.00 0.00 0.71 92 1008.3
20260903093123 13 186 0.0 0.0 0.00 0.00 0.71 93 1008.4
20260903092122 13 186 0.0 0.0 0.00 0.00 0.71 93 1008.4
20260903090120 13 186 0.0 0.0 0.00 0.00 0.71 93 1008.6
20260903085119 13 186 0.0 0.0 0.00 0.00 0.71 93 1008.6
20260903084119 13 186 0.0 0.0 0.00 0.00 0.71 93 1008.7
20260903083117 13 186 0.0 0.0 0.00 0.00 0.69 92 1008.7
20260903081116 13 185 0.0 0.0 0.00 0.00 0.69 92 1008.7
20260903080115 13 198 0.0 0.0 0.00 0.00 0.69 92 1008.8
20260903075113 13 198 0.0 0.0 0.00 0.00 0.69 92 1008.8
20260903074112 13 195 1.6 0.0 0.00 0.00 0.69 92 1008.8
20260903073112 13 200 0.0 0.0 0.00 0.00 0.66 92 1008.8
20260903072111 13 209 0.0 0.0 0.00 0.00 0.66 92 1008.7
20260903071109 13 208 0.0 0.0 0.00 0.00 0.66 91 1008.7
20260903070109 13 199 6.4 0.0 0.00 0.00 0.66 91 1008.6
20260903064106 13 229 3.2 0.0 0.00 0.00 0.66 91 1008.6
20260903063105 13 244 9.7 0.0 0.00 0.00 0.66 92 1008.7
20260903062104 13 215 0.0 0.0 0.00 0.00 0.66 92 1008.6
20260903061103 13 240 0.0 0.0 0.00 0.00 0.66 92 1008.7
20260903055101 13 211 0.0 0.0 0.00 0.00 0.66 91 1008.6
20260903054101 13 230 0.0 0.0 0.00 0.00 0.66 92 1008.5
20260903053059 13 225 0.0 0.0 0.00 0.00 0.66 92 1008.6
20260903052058 13 225 0.0 0.0 0.00 0.00 0.66 92 1008.7
20260903051057 13 223 0.0 0.0 0.00 0.00 0.66 92 1008.7
20260903050056 13 223 0.0 0.0 0.00 0.00 0.66 92 1008.5
20260903045055 13 197 0.0 0.0 0.00 0.00 0.66 92 1008.5
20260903044054 13 198 0.0 0.0 0.00 0.00 0.66 92 1008.4
20260903042052 14 203 0.0 0.0 0.00 0.00 0.66 92 1008.3
20260903041051 14 200 0.0 0.0 0.00 0.00 0.66 92 1008.2
20260903040050 14 217 0.0 0.0 0.00 0.00 0.66 92 1008.0
20260903035049 14 217 0.0 0.0 0.00 0.00 0.66 92 1007.9
20260903033047 15 215 3.2 0.0 0.00 0.00 0.66 92 1007.6